Weather History for Mullan Pass, ID

Change the Weather History Date:

Tuesday, November 20, 2012

  Actual Average (K3TH) Record (K3TH)
Temperature  
Mean Temperature 34 °F -  
Max Temperature 36 °F 38 °F 53 °F (2001)
Min Temperature 32 °F 30 °F 18 °F (2000)
Degree Days  
Heating Degree Days 31    
Moisture  
Dew Point 34 °F    
Average Humidity 100    
Maximum Humidity 100    
Minimum Humidity 100    
Precipitation  
Precipitation 1.63 in - - ()
Sea Level Pressure  
Sea Level Pressure 29.75 in    
Wind  
Wind Speed 9 mph (SSW)    
Max Wind Speed 17 mph    
Max Gust Speed 33 mph    
Visibility 1 miles    
Events Fog , Rain , Snow    
Averages and records for this station are not official NWS values.
T = Trace of Precipitation, MM = Missing Value Source: NWS Daily Summary

Daily Weather History Graph

Daily Weather History Graph

Search for Another Location

Airport:

Trip Planner

Search our weather history database for the weather conditions in past years. The results will help you decide how hot, cold, wet, or windy it might be!

Date:

Astronomy

Nov. 20, 2012 Rise Set
Actual Time 6:55 AM PST 4:01 PM PST
Civil Twilight 6:21 AM PST 4:35 PM PST
Nautical Twilight 5:43 AM PST 5:12 PM PST
Astronomical Twilight 5:07 AM PST 5:49 PM PST
Moon 12:16 PM PST (11/20) 11:54 PM PST (11/20)
Length of Visible Light 10h 13m
Length of Day
9h 05m
First Quarter, 52% of the Moon is Illuminated
Nov 20
First Quarter
Nov 28
Full
Dec 6
Last Quarter
Dec 13
New
Dec 19
First Quarter

Hourly Weather History & Observations

Time (PST) Temp. Windchill Dew Point Humidity Pressure Visibility Wind Dir Wind Speed Gust Speed Precip Events Conditions
12:06 AM 33.8 °F 24.8 °F 33.8 °F 100% 29.77 in 0.8 mi SSW 12.7 mph 33.4 mph 0.01 in Rain Light Freezing Rain
12:13 AM 33.8 °F 24.3 °F 33.8 °F 100% 29.77 in 1.0 mi South 13.8 mph 28.8 mph 0.01 in Snow Light Snow
12:30 AM 33.8 °F 27.0 °F 33.8 °F 100% 29.77 in 0.8 mi SSW 8.1 mph 31.1 mph 0.03 in Rain Light Freezing Rain
12:41 AM 33.8 °F 25.3 °F 33.8 °F 100% 29.77 in 1.0 mi South 11.5 mph 23.0 mph 0.05 in Rain Light Freezing Rain
12:44 AM 33.8 °F 25.3 °F 33.8 °F 100% 29.77 in 0.8 mi SSW 11.5 mph 21.9 mph 0.05 in Rain Light Freezing Rain
12:53 AM 34.0 °F 24.6 °F 34.0 °F 100% 29.68 in 0.5 mi SSW 13.8 mph 27.6 mph 0.07 in Fog , Rain Light Freezing Rain
12:59 AM 33.8 °F 23.2 °F 33.8 °F 100% 29.78 in 1.0 mi SSW 17.3 mph 29.9 mph 0.01 in Rain Rain
1:02 AM 33.8 °F 24.3 °F 33.8 °F 100% 29.78 in 1.5 mi SSW 13.8 mph 29.9 mph 0.02 in Rain Light Freezing Rain
1:18 AM 33.8 °F 24.8 °F 33.8 °F 100% 29.79 in 2.5 mi SSW 12.7 mph 31.1 mph 0.05 in Rain Light Freezing Rain
1:28 AM 33.8 °F 24.8 °F 33.8 °F 100% 29.80 in 2.0 mi SSW 12.7 mph 26.5 mph 0.08 in Rain Rain
1:36 AM 33.8 °F 26.4 °F 33.8 °F 100% 29.80 in 2.0 mi SSW 9.2 mph 26.5 mph 0.09 in Rain Light Freezing Rain
1:39 AM 33.8 °F 26.4 °F 33.8 °F 100% 29.80 in 1.5 mi SSW 9.2 mph 26.5 mph 0.09 in Rain Light Freezing Rain
1:41 AM 33.8 °F 25.8 °F 33.8 °F 100% 29.80 in 1.2 mi SSW 10.4 mph 26.5 mph 0.10 in Rain Light Freezing Rain
1:48 AM 33.8 °F 25.8 °F 33.8 °F 100% 29.80 in 1.8 mi SSW 10.4 mph 21.9 mph 0.11 in Rain Light Freezing Rain
1:53 AM 34.0 °F 28.0 °F 34.0 °F 100% 29.72 in 1.2 mi Variable 6.9 mph 21.9 mph 0.11 in Rain Light Freezing Rain
2:06 AM 33.8 °F 28.6 °F 33.8 °F 100% 29.82 in 0.8 mi SW 5.8 mph 19.6 mph 0.01 in Snow Light Snow
2:35 AM 32.0 °F 25.6 °F 32.0 °F 100% 29.83 in 1.5 mi Variable 6.9 mph - 0.04 in Snow Light Snow
2:41 AM 32.0 °F 25.6 °F 32.0 °F 100% 29.83 in 0.8 mi WSW 6.9 mph - 0.05 in Snow Light Snow
2:53 AM 32.0 °F 26.4 °F 32.0 °F 100% 29.76 in 0.2 mi Variable 5.8 mph - 0.07 in Fog , Snow Light Snow
3:03 AM 32.0 °F 27.5 °F 32.0 °F 100% 29.84 in 0.5 mi Variable 4.6 mph - 0.02 in Fog , Snow Snow
3:39 AM 32.0 °F 25.6 °F 32.0 °F 100% 29.83 in 1.0 mi Variable 6.9 mph - 0.05 in Snow Light Snow
3:43 AM 32.0 °F 27.5 °F 32.0 °F 100% 29.83 in 1.5 mi Variable 4.6 mph - 0.05 in Snow Light Snow
4:03 AM 32.0 °F 26.4 °F 32.0 °F 100% 29.82 in 1.0 mi Variable 5.8 mph - 0.00 in Snow Light Snow
4:10 AM 32.0 °F 26.4 °F 32.0 °F 100% 29.81 in 0.8 mi Variable 5.8 mph - 0.00 in Snow Light Snow
4:19 AM 32.0 °F 26.4 °F 32.0 °F 100% 29.81 in 1.0 mi SSW 5.8 mph - 0.01 in Snow Light Snow
4:38 AM 32.0 °F 27.5 °F 32.0 °F 100% 29.82 in 0.8 mi Variable 4.6 mph - 0.01 in Snow Light Snow
4:53 AM 32.0 °F 26.4 °F 32.0 °F 100% 29.73 in 0.8 mi South 5.8 mph - 0.02 in Snow Light Snow
5:07 AM 32.0 °F 26.4 °F 32.0 °F 100% 29.82 in 1.0 mi SW 5.8 mph - 0.03 in Snow Light Snow
5:18 AM 32.0 °F 27.5 °F 32.0 °F 100% 29.82 in 0.8 mi Variable 4.6 mph - 0.05 in Snow Light Snow
5:26 AM 32.0 °F 26.4 °F 32.0 °F 100% 29.82 in 0.8 mi Variable 5.8 mph - 0.06 in Snow Light Snow
5:38 AM 32.0 °F 25.6 °F 32.0 °F 100% 29.82 in 1.2 mi SW 6.9 mph - 0.08 in Snow Light Snow
5:48 AM 32.0 °F 25.6 °F 32.0 °F 100% 29.82 in 0.8 mi Variable 6.9 mph - 0.11 in Snow Light Snow
5:53 AM 32.0 °F 24.2 °F 32.0 °F 100% 29.74 in 0.8 mi SW 9.2 mph - 0.12 in Snow Light Snow
6:04 AM 32.0 °F 25.6 °F 32.0 °F 100% 29.82 in 1.2 mi Variable 6.9 mph 19.6 mph 0.02 in Snow Light Snow
6:17 AM 32.0 °F 27.5 °F 32.0 °F 100% 29.81 in 0.5 mi Variable 4.6 mph - 0.04 in Fog , Snow Light Snow
6:24 AM 32.0 °F 28.7 °F 32.0 °F 100% 29.81 in 0.5 mi Variable 3.5 mph - 0.05 in Fog , Snow Snow
6:53 AM 32.0 °F 28.7 °F 32.0 °F 100% 29.72 in 0.5 mi Variable 3.5 mph - 0.09 in Fog , Snow Snow
7:13 AM 32.0 °F 27.5 °F 32.0 °F 100% 29.80 in 0.5 mi SW 4.6 mph - 0.03 in Fog , Snow Snow
7:51 AM 32.0 °F 27.5 °F 32.0 °F 100% 29.80 in 0.2 mi Variable 4.6 mph - 0.09 in Fog , Snow Heavy Snow
8:53 AM 32.0 °F 24.8 °F 32.0 °F 100% 29.69 in 0.2 mi South 8.1 mph - 0.10 in Fog , Snow Light Snow
9:04 AM 32.0 °F 25.6 °F 32.0 °F 100% 29.77 in 0.2 mi Variable 6.9 mph - 0.02 in Fog , Rain Light Freezing Rain
9:17 AM 32.0 °F 26.4 °F 32.0 °F 100% 29.77 in 0.2 mi Variable 5.8 mph - 0.04 in Fog , Rain Light Freezing Rain
9:30 AM 33.8 °F 27.0 °F 33.8 °F 100% 29.77 in 0.2 mi South 8.1 mph 20.7 mph 0.07 in Fog , Rain Light Freezing Rain
9:53 AM 33.1 °F 24.9 °F 33.1 °F 100% 29.67 in 0.5 mi SSE 10.4 mph 20.7 mph 0.11 in Fog , Rain Light Freezing Rain
10:04 AM 33.8 °F 24.8 °F 33.8 °F 100% 29.77 in 0.5 mi South 12.7 mph 24.2 mph 0.02 in Fog , Rain Light Rain
10:11 AM 33.8 °F 24.8 °F 33.8 °F 100% 29.77 in 1.0 mi South 12.7 mph 27.6 mph 0.03 in Rain Light Freezing Rain
10:27 AM 33.8 °F 24.8 °F 33.8 °F 100% 29.76 in 0.8 mi South 12.7 mph 26.5 mph 0.05 in Rain Light Freezing Rain
10:53 AM 35.1 °F 26.4 °F 35.1 °F 100% 29.64 in 0.5 mi South 12.7 mph 27.6 mph 0.11 in Fog , Rain Light Freezing Rain
11:25 AM 35.6 °F 29.9 °F 35.6 °F 100% 29.74 in 0.8 mi Variable 6.9 mph 24.2 mph 0.07 in Rain Light Freezing Rain
11:38 AM 35.6 °F 29.2 °F 35.6 °F 100% 29.74 in 1.5 mi South 8.1 mph 25.3 mph 0.08 in Rain Light Freezing Rain
11:41 AM 35.6 °F 28.0 °F 35.6 °F 100% 29.74 in 1.2 mi SSW 10.4 mph 25.3 mph 0.08 in Rain Light Rain
11:46 AM 35.6 °F 28.6 °F 35.6 °F 100% 29.74 in 0.5 mi South 9.2 mph 23.0 mph 0.08 in Fog , Rain Light Freezing Rain
11:53 AM 35.1 °F 29.3 °F 35.1 °F 100% 29.63 in 0.5 mi Variable 6.9 mph 28.8 mph 0.09 in Fog , Rain Light Freezing Rain
11:58 AM 35.6 °F 28.0 °F 35.6 °F 100% 29.74 in 1.0 mi South 10.4 mph 28.8 mph 0.00 in Rain Light Freezing Rain
12:10 PM 35.6 °F 28.0 °F 35.6 °F 100% 29.74 in 1.0 mi SSW 10.4 mph 27.6 mph 0.01 in Rain Light Freezing Rain
12:14 PM 35.6 °F 29.2 °F 35.6 °F 100% 29.74 in 0.8 mi SSW 8.1 mph 23.0 mph 0.01 in Rain Light Rain
12:24 PM 35.6 °F 26.6 °F 35.6 °F 100% 29.74 in 1.2 mi South 13.8 mph 27.6 mph 0.03 in Rain Light Freezing Rain
12:33 PM 35.6 °F 26.6 °F 35.6 °F 100% 29.74 in 0.5 mi South 13.8 mph 27.6 mph 0.04 in Fog , Rain Light Freezing Rain
12:41 PM 35.6 °F 28.0 °F 35.6 °F 100% 29.74 in 0.5 mi South 10.4 mph 27.6 mph 0.05 in Fog , Rain Light Freezing Rain
12:53 PM 35.1 °F 25.5 °F 35.1 °F 100% 29.63 in 0.5 mi South 15.0 mph 33.4 mph 0.08 in Fog , Rain Light Freezing Rain
1:06 PM 33.8 °F 27.7 °F 33.8 °F 100% 29.74 in 0.2 mi Variable 6.9 mph 21.9 mph 0.03 in Fog , Rain Light Freezing Rain
1:19 PM 33.8 °F 27.7 °F 33.8 °F 100% 29.74 in 0.5 mi Variable 6.9 mph 23.0 mph 0.06 in Fog , Rain Rain
1:29 PM 33.8 °F 25.3 °F 33.8 °F 100% 29.74 in 0.5 mi South 11.5 mph 23.0 mph 0.08 in Fog , Rain Light Freezing Rain
1:42 PM 33.8 °F 25.8 °F 33.8 °F 100% 29.74 in 0.2 mi South 10.4 mph 23.0 mph 0.10 in Fog , Rain Light Freezing Rain
1:50 PM 33.8 °F 26.4 °F 33.8 °F 100% 29.75 in 0.5 mi South 9.2 mph 25.3 mph 0.11 in Fog , Rain Light Freezing Rain
1:53 PM 34.0 °F 25.5 °F 34.0 °F 100% 29.65 in 0.5 mi SSW 11.5 mph 23.0 mph 0.11 in Fog , Rain Light Rain
2:02 PM 33.8 °F 27.0 °F 33.8 °F 100% 29.74 in 0.5 mi South 8.1 mph 24.2 mph 0.00 in Fog , Rain Light Freezing Rain
2:10 PM 33.8 °F 29.6 °F 33.8 °F 100% 29.74 in 0.2 mi Variable 4.6 mph 20.7 mph 0.00 in Fog , Rain Light Freezing Rain
2:53 PM 35.1 °F 26.9 °F 35.1 °F 100% 29.63 in 0.2 mi South 11.5 mph 24.2 mph 0.03 in Fog , Rain Light Freezing Rain
3:11 PM 35.6 °F 27.5 °F 35.6 °F 100% 29.74 in 0.5 mi South 11.5 mph 24.2 mph 0.02 in Fog , Rain Light Freezing Rain
3:23 PM 35.6 °F 28.6 °F 35.6 °F 100% 29.75 in 0.2 mi SSW 9.2 mph 17.3 mph 0.03 in Fog , Rain Light Freezing Rain
3:30 PM 35.6 °F 27.1 °F 35.6 °F 100% 29.75 in 0.5 mi SSW 12.7 mph 20.7 mph 0.04 in Fog , Rain Rain
3:38 PM 35.6 °F 27.5 °F 35.6 °F 100% 29.75 in 1.2 mi SW 11.5 mph 29.9 mph 0.05 in Rain Light Freezing Rain
3:41 PM 35.6 °F 26.6 °F 35.6 °F 100% 29.76 in 2.5 mi SW 13.8 mph 29.9 mph 0.06 in Rain Light Freezing Rain
3:53 PM 36.0 °F 26.7 °F 36.0 °F 100% 29.65 in 2.5 mi SSW 15.0 mph 28.8 mph 0.07 in Rain Light Freezing Rain
4:00 PM 35.6 °F 26.6 °F 35.6 °F 100% 29.76 in 6.0 mi SW 13.8 mph 33.4 mph 0.00 in Rain Light Freezing Rain
4:05 PM 35.6 °F 27.1 °F 35.6 °F 100% 29.76 in 9.0 mi SW 12.7 mph 33.4 mph 0.00 in Rain Light Freezing Rain
4:12 PM 35.6 °F 28.0 °F 35.6 °F 100% 29.76 in 9.0 mi SW 10.4 mph 23.0 mph 0.00 in Rain Light Freezing Rain
4:24 PM 35.6 °F 28.6 °F 35.6 °F 100% 29.76 in 3.0 mi SSW 9.2 mph 29.9 mph 0.00 in   Overcast
4:28 PM 35.6 °F 27.5 °F 35.6 °F 100% 29.76 in 1.8 mi SSW 11.5 mph 20.7 mph 0.00 in   Overcast
4:40 PM 35.6 °F 27.5 °F 35.6 °F 100% 29.76 in 3.0 mi SSW 11.5 mph 21.9 mph 0.00 in   Overcast
4:53 PM 35.1 °F 26.4 °F 35.1 °F 100% 29.65 in 2.0 mi SW 12.7 mph 19.6 mph 0.00 in   Overcast
4:57 PM 35.6 °F 28.6 °F 35.6 °F 100% 29.75 in 5.0 mi SSW 9.2 mph 19.6 mph N/A   Overcast
5:04 PM 35.6 °F 28.0 °F 35.6 °F 100% 29.75 in 4.0 mi SSW 10.4 mph 18.4 mph N/A   Overcast
5:28 PM 35.6 °F 31.7 °F 35.6 °F 100% 29.75 in 1.5 mi South 4.6 mph - 0.00 in Rain Light Rain
5:30 PM 35.6 °F 30.7 °F 35.6 °F 100% 29.75 in 0.8 mi South 5.8 mph - 0.00 in Rain Light Rain
5:53 PM 35.1 °F 29.3 °F 35.1 °F 100% 29.64 in 0.8 mi Variable 6.9 mph 18.4 mph 0.05 in Rain Light Rain
6:12 PM 35.6 °F 28.0 °F 35.6 °F 100% 29.75 in 1.5 mi SW 10.4 mph - 0.08 in Rain Rain
6:30 PM 35.6 °F 29.9 °F 35.6 °F 100% 29.75 in 2.5 mi WSW 6.9 mph - 0.13 in Rain Rain
6:35 PM 35.6 °F 29.2 °F 35.6 °F 100% 29.75 in 1.2 mi WNW 8.1 mph - 0.15 in Rain Rain
6:47 PM 33.8 °F 27.7 °F 33.8 °F 100% 29.75 in 2.0 mi Variable 6.9 mph 19.6 mph 0.18 in Snow Light Snow
6:53 PM 33.1 °F 28.7 °F 33.1 °F 100% 29.67 in 3.0 mi Variable 4.6 mph - 0.19 in Snow Light Snow
7:16 PM 33.8 °F 27.7 °F 33.8 °F 100% 29.75 in 6.0 mi Variable 6.9 mph - 0.01 in Rain Light Freezing Rain
7:21 PM 33.8 °F 29.6 °F 33.8 °F 100% 29.75 in 2.5 mi Variable 4.6 mph - 0.02 in Snow Light Snow
7:25 PM 33.8 °F 26.4 °F 33.8 °F 100% 29.76 in 1.2 mi West 9.2 mph - 0.04 in Snow Light Snow
7:41 PM 32.0 °F 25.6 °F 32.0 °F 100% 29.75 in 0.8 mi Variable 6.9 mph 20.7 mph 0.09 in Snow Light Snow
7:53 PM 32.0 °F 24.8 °F 32.0 °F 100% 29.66 in 0.8 mi WNW 8.1 mph - 0.12 in Snow Light Snow
8:00 PM 32.0 °F 24.8 °F 32.0 °F 100% 29.74 in 1.5 mi WSW 8.1 mph - 0.01 in Snow Light Snow
8:13 PM 32.0 °F 24.8 °F 32.0 °F 100% 29.75 in 0.8 mi SSW 8.1 mph - 0.02 in Snow Light Snow
8:34 PM 32.0 °F 24.8 °F 32.0 °F 100% 29.75 in 1.0 mi SW 8.1 mph - 0.03 in Snow Light Snow
8:47 PM 32.0 °F 26.4 °F 32.0 °F 100% 29.75 in 0.8 mi Variable 5.8 mph - 0.04 in Snow Light Snow
8:53 PM 32.0 °F 24.8 °F 32.0 °F 100% 29.65 in 1.0 mi SW 8.1 mph - 0.04 in Snow Light Snow
9:07 PM 32.0 °F 27.5 °F 32.0 °F 100% 29.75 in 0.5 mi Variable 4.6 mph - 0.00 in Fog , Snow Light Snow
9:53 PM 32.0 °F 28.7 °F 32.0 °F 100% 29.65 in 0.5 mi South 3.5 mph - 0.03 in Fog , Snow Light Snow
10:02 PM 32.0 °F - 32.0 °F 100% 29.73 in 0.2 mi Calm Calm - 0.00 in Fog , Snow Light Snow
10:17 PM 32.0 °F 26.4 °F 32.0 °F 100% 29.74 in 0.5 mi South 5.8 mph - 0.01 in Fog , Snow Light Snow
10:53 PM 32.0 °F 28.7 °F 32.0 °F 100% 29.63 in 0.5 mi Variable 3.5 mph - 0.01 in Fog Fog
11:44 PM 32.0 °F 28.7 °F 32.0 °F 100% 29.70 in 0.5 mi Variable 3.5 mph - 0.01 in Fog Fog
11:53 PM 32.0 °F 27.5 °F 32.0 °F 100% 29.59 in 0.5 mi Variable 4.6 mph - 0.01 in Fog Fog